[[{"header":{"parameterUnit":"m.s-1","parameterCategory":1,"la1":30.2991,"la2":30.254,"lo1":-89.0895,"lo2":-89.0444,"dy":0.0017,"dx":0.0017,"nx":28,"ny":28,"refTime":"2024-05-04T03:00:00:Z","depth":0,"parameterNumber":2,"parameterNumberName":"U-component_of_WINDS"},"data":[0,0,0,0,0,0,0,0,0,0,0,0,0,0,0,0,0,0,0,0,0,0,0,0,0,0,0,0,0,0,0,0,0,0,0,0,0,0,0,0,0,0,0,0,0,0,0,0,0,0,0,0,0,0,0,0,0,0,-1.6475,-1.6475,0,-1.6462,-1.6462,-1.6462,-1.6426,-1.6426,-1.6425,-1.6424,-1.6412,-1.6412,-1.6412,0,0,0,0,0,0,0,0,0,0,0,0,0,-1.6471,-1.6471,-1.6475,-1.6475,-1.6475,-1.6462,-1.6462,-1.6462,-1.6426,-1.6426,-1.6425,-1.6424,-1.6412,-1.6412,-1.6412,0,0,0,0,0,0,0,0,0,0,0,0,0,-1.6467,-1.6471,-1.6475,-1.6456,-1.6454,-1.6462,-1.6462,-1.6461,-1.6427,-1.6425,-1.6424,-1.6423,-1.6411,-1.6412,-1.6412,-1.6439,0,0,-1.6414,-1.6414,0,0,0,0,0,0,0,0,-1.6467,-1.6467,-1.6459,-1.6457,-1.6455,-1.6444,-1.6456,-1.6454,-1.6427,-1.6437,-1.6424,-1.6423,-1.6424,-1.6423,-1.6423,-1.6438,-1.6438,-1.6414,-1.6415,-1.6415,-1.6415,0,0,0,0,0,0,0,-1.6467,-1.6467,-1.647,-1.6458,-1.6456,-1.6448,-1.6446,-1.6455,-1.6437,-1.6436,-1.6433,-1.6432,-1.6422,-1.6423,-1.6423,-1.6437,-1.6414,-1.6415,-1.6415,-1.6415,-1.6473,-1.6474,0,0,0,0,0,0,-1.647,-1.6468,-1.647,-1.6469,-1.6458,-1.6449,-1.6447,-1.6449,-1.6437,-1.6434,-1.6433,-1.6431,-1.6422,-1.6422,-1.6422,-1.6451,-1.6415,-1.6415,-1.6416,-1.6472,-1.6474,-1.6475,0,0,0,0,0,0,-1.647,-1.6471,-1.6471,-1.6468,-1.6467,-1.645,-1.6453,-1.6449,-1.645,-1.6435,-1.6431,-1.6437,-1.6421,-1.6421,-1.6435,-1.645,-1.6416,-1.6416,-1.6471,-1.6473,-1.6474,-1.6511,0,0,0,0,0,0,-1.647,-1.6471,-1.648,-1.6468,-1.6467,-1.6483,-1.6454,-1.645,-1.6451,-1.6447,-1.6437,-1.6434,-1.642,-1.6434,-1.6435,-1.6451,-1.6417,-1.6469,-1.6472,-1.6474,-1.6508,-1.6513,-1.6518,0,0,0,0,0,-1.647,-1.6491,-1.6481,-1.6481,-1.6479,-1.6484,-1.6484,-1.6467,-1.6452,-1.6461,-1.6452,-1.6435,-1.6449,-1.6436,-1.6437,-1.6453,-1.6468,-1.6471,-1.6474,-1.6506,-1.6512,-1.6518,0,0,0,0,0,0,-1.6506,-1.6489,-1.6478,-1.6495,-1.6492,-1.6478,-1.649,-1.6475,-1.6475,-1.6472,-1.6452,-1.645,-1.6466,-1.6461,-1.6447,-1.6477,-1.6456,-1.6459,-1.648,-1.6486,-1.6491,-1.6491,-1.6417,0,0,0,0,0,-1.6516,-1.6521,-1.6507,-1.6524,-1.6523,-1.6507,-1.6508,-1.6496,-1.6491,-1.6489,-1.6481,-1.6477,-1.6481,-1.6483,-1.6486,-1.6508,-1.6505,-1.6519,-1.6524,-1.6529,-1.6531,-1.6542,-1.6548,-1.6484,-1.6484,-1.6484,0,0,-1.6536,-1.6528,-1.6533,-1.6531,-1.6526,-1.6533,-1.6505,-1.6513,-1.6518,-1.6491,-1.6502,-1.6496,-1.6491,-1.6509,-1.6516,-1.6505,-1.6548,-1.6532,-1.6536,-1.6536,-1.6545,-1.6551,-1.6557,-1.6486,-1.6485,-1.6485,0,0,-1.6576,-1.6571,-1.6584,-1.6581,-1.6574,-1.6563,-1.6567,-1.6556,-1.6551,-1.6562,-1.6542,-1.6548,-1.6554,-1.6551,-1.655,-1.6591,-1.6575,-1.6592,-1.6619,-1.6629,-1.6634,-1.6639,-1.6652,-1.6657,-1.6595,-1.6595,-1.6595,0,-1.6603,-1.6611,-1.6593,-1.6602,-1.6602,-1.6578,-1.6592,-1.6589,-1.6584,-1.6584,-1.6572,-1.658,-1.6575,-1.6591,-1.6601,-1.6602,-1.6605,-1.6592,-1.6635,-1.6639,-1.6643,-1.6656,-1.6661,-1.6597,-1.6597,-1.6597,-1.6597,0,-1.6643,-1.6649,-1.6661,-1.6656,-1.6658,-1.6669,-1.6653,-1.6657,-1.6645,-1.6636,-1.6648,-1.6642,-1.6642,-1.6645,-1.6634,-1.666,-1.6653,-1.6639,-1.6616,-1.6651,-1.6663,-1.6668,-1.66,-1.66,-1.6599,-1.6598,0,0,-1.6704,-1.669,-1.6694,-1.6692,-1.6683,-1.6688,-1.6699,-1.6699,-1.6702,-1.67,-1.6708,-1.6715,-1.6701,-1.67,-1.6688,-1.6698,-1.673,-1.6682,-1.6681,-1.669,-1.6757,-1.6768,-1.6774,-1.672,-1.672,-1.6721,-1.6758,0,-1.6741,-1.6757,-1.6742,-1.6762,-1.6767,-1.6745,-1.6754,-1.675,-1.6743,-1.6747,-1.6738,-1.6743,-1.6725,-1.6724,-1.6733,-1.6724,-1.6743,-1.6721,-1.6727,-1.6727,-1.6727,-1.678,-1.6791,-1.6825,-1.6762,-1.6763,-1.6763,0,-1.6786,-1.6785,-1.6805,-1.6795,-1.6797,-1.6806,-1.6805,-1.6809,-1.6804,-1.6798,-1.6798,-1.6783,-1.6793,-1.6773,-1.6786,-1.6772,-1.6774,-1.677,-1.6771,-1.6769,-1.6746,-1.6779,-1.6836,-1.6841,-1.677,-1.677,-1.6769,0,-1.6827,-1.6831,-1.6843,-1.6842,-1.6832,-1.6838,-1.6834,-1.6828,-1.6829,-1.6829,-1.683,-1.6831,-1.6831,-1.6833,-1.6819,-1.6806,-1.6834,-1.6813,-1.6829,-1.6829,-1.6835,-1.6834,-1.6892,-1.6838,-1.6838,-1.6838,-1.6838,0,-1.6868,-1.6881,-1.6861,-1.6869,-1.6883,-1.6866,-1.6881,-1.6874,-1.687,-1.6876,-1.6858,-1.6864,-1.6846,-1.6851,-1.6841,-1.6853,-1.6854,-1.6849,-1.6846,-1.685,-1.685,-1.6849,-1.6846,-1.684,-1.6839,-1.6839,-1.6839,0,-1.6916,-1.6903,-1.6915,-1.6904,-1.6902,-1.6913,-1.6903,-1.691,-1.6902,-1.691,-1.6911,-1.6897,-1.6902,-1.6889,-1.6892,-1.6885,-1.6902,-1.6896,-1.6904,-1.6901,-1.6918,-1.6916,-1.6976,-1.6982,-1.6926,-1.6926,-1.6927,0,-1.6942,-1.6952,-1.6942,-1.6945,-1.6942,-1.6946,-1.6947,-1.6932,-1.6934,-1.693,-1.6937,-1.694,-1.6941,-1.695,-1.694,-1.6942,-1.6935,-1.6956,-1.6935,-1.6939,-1.6934,-1.6933,-1.6934,-1.696,-1.696,-1.6961,-1.6961,0,-1.6991,-1.6985,-1.6987,-1.6987,-1.6989,-1.6988,-1.6987,-1.699,-1.6974,-1.6977,-1.6981,-1.6982,-1.6985,-1.6988,-1.6988,-1.6984,-1.697,-1.6968,-1.6972,-1.6975,-1.6979,-1.6976,-1.6914,-1.6967,-1.6966,-1.6966,-1.6965,-1.6965,-1.7028,-1.7035,-1.7029,-1.7033,-1.703,-1.7029,-1.7034,-1.7027,-1.703,-1.703,-1.7022,-1.7028,-1.7023,-1.7022,-1.702,-1.7025,-1.7015,-1.7021,-1.7022,-1.7023,-1.7025,-1.698,-1.7025,-1.7025,-1.7024,-1.7024,-1.7024,0,-1.7075,-1.707,-1.7073,-1.7071,-1.7074,-1.7061,-1.7059,-1.7062,-1.7067,-1.7064,-1.7066,-1.7071,-1.7074,-1.7066,-1.7068,-1.7073,-1.7067,-1.7074,-1.7073,-1.7072,-1.7034,-1.703,-1.7079,-1.7079,-1.7079,-1.7079,-1.7079,-1.7079,-1.7099,-1.711,-1.7103,-1.7113,-1.7109,-1.7114,-1.7114,-1.7113,-1.7111,-1.7117,-1.7119,-1.7114,-1.7109,-1.711,-1.7113,-1.711,-1.7111,-1.7121,-1.7116,-1.708,-1.7075,-1.707,-1.7066,-1.7121,-1.7121,-1.7153,-1.7153,-1.7153]},{"header":{"parameterUnit":"m.s-1","parameterCategory":1,"la1":30.2991,"la2":30.254,"lo1":-89.0895,"lo2":-89.0444,"dy":0.0017,"dx":0.0017,"nx":28,"ny":28,"refTime":"2024-05-04T03:00:00:Z","depth":0,"parameterNumber":3,"parameterNumberName":"V-component_of_WINDS"},"data":[0,0,0,0,0,0,0,0,0,0,0,0,0,0,0,0,0,0,0,0,0,0,0,0,0,0,0,0,0,0,0,0,0,0,0,0,0,0,0,0,0,0,0,0,0,0,0,0,0,0,0,0,0,0,0,0,0,0,0.6123,0.6123,0,0.6132,0.6133,0.6133,0.6129,0.6129,0.6129,0.6128,0.6137,0.6138,0.6138,0,0,0,0,0,0,0,0,0,0,0,0,0,0.61,0.61,0.6123,0.6123,0.6123,0.6132,0.6133,0.6133,0.6129,0.6129,0.6129,0.6128,0.6137,0.6138,0.6138,0,0,0,0,0,0,0,0,0,0,0,0,0,0.611,0.61,0.6123,0.6122,0.6122,0.6132,0.6133,0.6133,0.6129,0.6129,0.6128,0.6128,0.6137,0.6138,0.6138,0.6149,0,0,0.614,0.6141,0,0,0,0,0,0,0,0,0.6109,0.611,0.6122,0.6122,0.6122,0.6129,0.6128,0.6138,0.6129,0.6126,0.6128,0.6128,0.6135,0.6136,0.6138,0.6149,0.615,0.614,0.6141,0.6141,0.6141,0,0,0,0,0,0,0,0.6108,0.611,0.6126,0.6122,0.6122,0.6121,0.6122,0.613,0.6132,0.6127,0.6126,0.6128,0.6135,0.6137,0.6138,0.615,0.614,0.6141,0.6141,0.6142,0.6171,0.6171,0,0,0,0,0,0,0.6108,0.6109,0.6126,0.6127,0.6115,0.6122,0.6123,0.6127,0.6132,0.6133,0.6128,0.6128,0.6136,0.6138,0.6139,0.6152,0.6141,0.6142,0.6142,0.617,0.6171,0.6171,0,0,0,0,0,0,0.6107,0.6109,0.6126,0.6118,0.612,0.6123,0.6127,0.6128,0.613,0.6133,0.6134,0.613,0.6136,0.6138,0.6147,0.6152,0.6142,0.6142,0.617,0.6171,0.6171,0.6178,0,0,0,0,0,0,0.6107,0.6109,0.6113,0.6118,0.612,0.6134,0.6128,0.6128,0.6132,0.6131,0.6136,0.6136,0.6136,0.6146,0.6147,0.6153,0.6143,0.617,0.617,0.6171,0.6177,0.6178,0.618,0,0,0,0,0,0.6106,0.6114,0.6114,0.6116,0.6126,0.6134,0.6135,0.6136,0.6132,0.6136,0.6138,0.6136,0.6151,0.6147,0.6148,0.6154,0.6169,0.617,0.6171,0.6176,0.6178,0.618,0,0,0,0,0,0,0.6109,0.6115,0.6114,0.6125,0.6129,0.6133,0.6139,0.6138,0.6143,0.6142,0.6142,0.6143,0.6152,0.6154,0.6149,0.6165,0.616,0.6161,0.6163,0.6165,0.6166,0.6165,0.6144,0,0,0,0,0,0.6112,0.6118,0.6123,0.6131,0.6134,0.6136,0.6139,0.614,0.6144,0.6145,0.6148,0.6152,0.6158,0.6161,0.6167,0.6177,0.6178,0.6182,0.6184,0.6185,0.6186,0.6192,0.6193,0.6174,0.6174,0.6174,0,0,0.6116,0.612,0.6124,0.6132,0.6136,0.6142,0.6137,0.6144,0.6149,0.6146,0.6155,0.6157,0.6162,0.6172,0.6176,0.6173,0.6191,0.6186,0.6187,0.6187,0.6193,0.6194,0.6196,0.6175,0.6175,0.6175,0,0,0.6127,0.613,0.6138,0.6142,0.6148,0.6149,0.6151,0.6156,0.6157,0.6166,0.6165,0.617,0.618,0.6183,0.6186,0.62,0.6198,0.6201,0.6208,0.6214,0.6215,0.6217,0.6221,0.6223,0.6203,0.6203,0.6203,0,0.6131,0.6141,0.6142,0.615,0.6154,0.6152,0.616,0.6164,0.617,0.6173,0.617,0.6183,0.6186,0.6197,0.62,0.6202,0.6205,0.6201,0.6215,0.6217,0.6218,0.6222,0.6224,0.6203,0.6203,0.6203,0.6203,0,0.6146,0.6154,0.6159,0.6167,0.6171,0.6179,0.6181,0.6185,0.6185,0.6187,0.6196,0.62,0.6206,0.6209,0.6208,0.622,0.6218,0.6215,0.621,0.622,0.6224,0.6226,0.6204,0.6203,0.6203,0.6203,0,0,0.6159,0.6168,0.617,0.6173,0.618,0.6185,0.6193,0.62,0.6203,0.6208,0.6215,0.6223,0.6221,0.6225,0.6225,0.623,0.624,0.6227,0.6227,0.6229,0.6253,0.6255,0.6257,0.6239,0.6239,0.624,0.6252,0,0.6171,0.6185,0.6186,0.6199,0.6205,0.6205,0.6211,0.6216,0.6218,0.6224,0.6226,0.6232,0.6228,0.6231,0.6236,0.6238,0.6245,0.6237,0.6245,0.6245,0.6243,0.6259,0.6261,0.6272,0.6254,0.6254,0.6254,0,0.6186,0.6192,0.6205,0.6211,0.6214,0.622,0.6227,0.6232,0.6237,0.6239,0.6243,0.6243,0.625,0.6245,0.6256,0.625,0.6254,0.6255,0.6256,0.6256,0.625,0.6259,0.6276,0.6278,0.6257,0.6257,0.6257,0,0.6194,0.6205,0.6215,0.6218,0.6225,0.6229,0.6233,0.6238,0.6242,0.6247,0.625,0.6256,0.626,0.6264,0.6266,0.6262,0.6276,0.6271,0.6277,0.6277,0.628,0.628,0.6297,0.6282,0.6282,0.6282,0.6282,0,0.6206,0.6214,0.6219,0.6225,0.6234,0.6235,0.6244,0.6247,0.6252,0.6258,0.6257,0.6263,0.6265,0.627,0.6272,0.628,0.6282,0.6283,0.6283,0.6283,0.6282,0.6284,0.6284,0.6283,0.6283,0.6283,0.6283,0,0.6217,0.622,0.623,0.6237,0.6238,0.6245,0.625,0.6256,0.6258,0.6266,0.6268,0.6271,0.6278,0.628,0.6288,0.6289,0.6299,0.6299,0.6298,0.6298,0.6304,0.6303,0.6323,0.6325,0.6309,0.6309,0.6309,0,0.6224,0.6231,0.6238,0.6243,0.6246,0.6253,0.6258,0.626,0.6264,0.6271,0.6276,0.6283,0.6289,0.63,0.6303,0.6309,0.6309,0.6315,0.631,0.6309,0.6309,0.6308,0.6309,0.6316,0.6316,0.6316,0.6317,0,0.6238,0.6239,0.6246,0.6254,0.6259,0.6265,0.627,0.6274,0.6277,0.6282,0.629,0.6294,0.6303,0.631,0.6317,0.6319,0.6318,0.6318,0.632,0.632,0.6319,0.632,0.63,0.6318,0.6318,0.6318,0.6318,0.6318,0.6247,0.6253,0.6259,0.6267,0.6271,0.6277,0.6283,0.6286,0.6292,0.63,0.6301,0.6309,0.6314,0.6323,0.6326,0.6333,0.6331,0.6333,0.6334,0.6334,0.6335,0.6318,0.6334,0.6334,0.6334,0.6334,0.6334,0,0.626,0.6265,0.6272,0.628,0.6286,0.6286,0.6292,0.6297,0.6304,0.6309,0.6315,0.6324,0.6331,0.6335,0.6342,0.6346,0.6346,0.6348,0.6347,0.6348,0.6336,0.6334,0.6348,0.6348,0.6348,0.6348,0.6348,0.6348,0.6268,0.6278,0.628,0.6293,0.6297,0.6305,0.6309,0.6314,0.6318,0.6328,0.6334,0.6337,0.6342,0.6349,0.6355,0.6356,0.6358,0.6361,0.6361,0.635,0.6349,0.6347,0.6345,0.6361,0.6361,0.6373,0.6373,0.6373]}]]